Weather History for Northeast Philadelphia, PA

Change the Weather History Date:

Thursday, April 25, 2013

  Actual Average Record
Temperature  
Mean Temperature 54 °F -  
Max Temperature 63 °F 65 °F 84 °F (2011)
Min Temperature 45 °F 42 °F 36 °F (1999)
Degree Days  
Heating Degree Days 11    
Growing Degree Days 4 (Base 50)    
Moisture  
Dew Point 30 °F    
Average Humidity 41    
Maximum Humidity 67    
Minimum Humidity 23    
Precipitation  
Precipitation 0.00 in - - ()
Sea Level Pressure  
Sea Level Pressure 30.19 in    
Wind  
Wind Speed 14 mph (NW)    
Max Wind Speed 22 mph    
Max Gust Speed 36 mph    
Visibility 10 miles    
Events      
Averages and records for this station are not official NWS values.
T = Trace of Precipitation, MM = Missing Value Source: NWS Daily Summary

Daily Weather History Graph

Daily Weather History Graph

Search for Another Location

Airport:

Trip Planner

Search our weather history database for the weather conditions in past years. The results will help you decide how hot, cold, wet, or windy it might be!

Date:

Astronomy

Apr. 25, 2013 Rise Set
Actual Time 6:07 AM EDT 7:49 PM EDT
Civil Twilight 5:38 AM EDT 8:18 PM EDT
Nautical Twilight 5:03 AM EDT 8:53 PM EDT
Astronomical Twilight 4:26 AM EDT 9:30 PM EDT
Moon 7:59 PM EDT (4/25) 5:48 AM EDT (4/25)
Length of Visible Light 14h 39m
Length of Day
13h 41m
Full, 100% of the Moon is Illuminated
Apr 25
Full
Apr 25
Full
May 2
Last Quarter
May 9
New
May 18
First Quarter

Hourly Weather History & Observations

Time (EDT) Temp. Windchill Dew Point Humidity Pressure Visibility Wind Dir Wind Speed Gust Speed Precip Events Conditions
12:54 AM 62.1 °F - 51.1 °F 67% 29.94 in 10.0 mi WNW 20.7 mph 27.6 mph 0.00 in   Overcast
1:54 AM 55.9 °F - 39.0 °F 53% 29.99 in 10.0 mi NW 21.9 mph 32.2 mph N/A   Overcast
2:54 AM 51.1 °F - 32.0 °F 48% 30.04 in 10.0 mi WNW 20.7 mph 27.6 mph N/A   Mostly Cloudy
3:54 AM 48.9 °F - 28.9 °F 46% 30.07 in 10.0 mi NW 19.6 mph 35.7 mph N/A   Overcast
4:54 AM 46.9 °F - 30.9 °F 54% 30.11 in 10.0 mi NW 13.8 mph 21.9 mph 0.00 in   Overcast
5:54 AM 45.0 °F 39.3 °F 30.0 °F 56% 30.15 in 10.0 mi NW 11.5 mph - N/A   Scattered Clouds
6:54 AM 45.0 °F 38.9 °F 30.0 °F 56% 30.19 in 10.0 mi NW 12.7 mph 21.9 mph N/A   Clear
7:54 AM 46.9 °F - 30.0 °F 52% 30.22 in 10.0 mi NW 15.0 mph - N/A   Clear
8:54 AM 48.9 °F - 30.0 °F 48% 30.24 in 10.0 mi NNW 17.3 mph 21.9 mph N/A   Clear
9:54 AM 51.1 °F - 28.9 °F 43% 30.23 in 10.0 mi NW 11.5 mph 19.6 mph N/A   Clear
10:54 AM 54.0 °F - 30.0 °F 40% 30.24 in 10.0 mi NW 13.8 mph - N/A   Clear
11:54 AM 54.0 °F - 30.0 °F 40% 30.25 in 10.0 mi Variable 6.9 mph 19.6 mph N/A   Clear
12:54 PM 57.0 °F - 30.9 °F 37% 30.23 in 10.0 mi West 10.4 mph - N/A   Clear
1:54 PM 59.0 °F - 30.0 °F 33% 30.22 in 10.0 mi North 6.9 mph 17.3 mph N/A   Clear
2:54 PM 60.1 °F - 27.0 °F 28% 30.21 in 10.0 mi West 6.9 mph - N/A   Clear
3:54 PM 63.0 °F - 30.0 °F 29% 30.20 in 10.0 mi WNW 12.7 mph 17.3 mph N/A   Clear
4:54 PM 63.0 °F - 26.1 °F 25% 30.19 in 10.0 mi Calm Calm - N/A   Clear
5:54 PM 62.1 °F - 27.0 °F 26% 30.20 in 10.0 mi WNW 9.2 mph - N/A   Clear
6:54 PM 62.1 °F - 24.1 °F 23% 30.21 in 10.0 mi WNW 3.5 mph - N/A   Unknown
7:54 PM 57.9 °F - 25.0 °F 28% 30.22 in 10.0 mi Calm Calm - N/A   Clear
8:54 PM 55.0 °F - 24.1 °F 30% 30.25 in 10.0 mi West 4.6 mph - N/A   Clear
9:54 PM 53.1 °F - 26.1 °F 35% 30.27 in 10.0 mi West 5.8 mph - N/A   Clear
10:54 PM 52.0 °F - 28.0 °F 40% 30.29 in 10.0 mi West 3.5 mph - N/A   Clear
11:54 PM 48.9 °F - 30.9 °F 50% 30.29 in 10.0 mi Calm Calm - N/A   Clear